Date String (YYYY-MM-DD hh:mm:ss) UTC,Instrument flags,Ambient pressure (hPa),Sample flow (lpm),Bypass flow (lpm),Sample temperature (°C),Ambient temperature (°C),ASC tube jacket temperature (°C),LED temperature (°C),Box temperature (°C),Sample RH (%),Span deviation,Mass concentration (μg/m³),Mass concentration (μg/m³),Mass concentration (μg/m³)
DateTimeUTC,F1_M11,P_M11,Q1_M11,Q2_M11,T1_M11,T2_M11,T3_M11,T4_M11,T5_M11,U1_M11,ZSPAN_M11,X0_M11,X2_M11,X1_M11
2022-04-26 21:00:00,,0824.6,4.99,0.00,28.0,27.4,00.0,36.8,29.8,06.2,0000.2,0038.61,0013.70,0006.63
2022-04-26 21:01:00,,0824.6,5.00,0.00,28.0,27.4,00.0,36.8,29.8,06.2,0000.9,0038.84,0013.71,0006.62
2022-04-26 21:02:00,,0824.6,5.00,0.00,28.0,27.4,00.0,36.8,29.9,06.1,0001.1,0038.65,0013.66,0006.63
2022-04-26 21:03:00,,0824.5,5.01,0.00,28.0,27.4,00.0,36.8,29.9,06.1,0000.5,0038.28,0013.69,0006.66
2022-04-26 21:04:00,,0824.6,4.99,0.00,28.1,27.5,00.0,36.8,29.9,06.1,0000.8,0037.14,0013.65,0006.68
2022-04-26 21:05:00,,0824.4,4.99,0.00,28.1,27.5,00.0,36.8,29.9,06.2,0000.8,0036.78,0013.62,0006.68
2022-04-26 21:06:00,,0824.5,5.01,0.00,28.1,27.5,00.0,36.9,29.9,06.4,0000.2,0036.89,0013.76,0006.72
2022-04-26 21:07:00,,0824.5,5.01,0.00,28.1,27.5,00.0,36.9,30.0,06.0,0000.2,0037.21,0013.68,0006.72
2022-04-26 21:08:00,,0824.4,5.00,0.00,28.1,27.5,00.0,36.9,29.9,05.9,0000.5,0037.67,0013.69,0006.71
2022-04-26 21:09:00,,0824.4,5.00,0.00,28.1,27.5,00.0,36.9,29.9,06.0,0000.6,0037.12,0013.74,0006.73
2022-04-26 21:10:00,,0824.4,5.00,0.00,28.1,27.5,00.0,36.9,30.0,06.1,0000.9,0037.30,0013.61,0006.73
2022-04-26 21:11:00,,0824.4,4.99,0.00,28.2,27.5,00.0,36.9,30.0,06.1,0001.1,0037.68,0013.56,0006.73
2022-04-26 21:12:00,,0824.4,5.02,0.00,28.2,27.6,00.0,36.9,30.0,06.1,0001.2,0038.48,0013.62,0006.75
2022-04-26 21:13:00,,0824.4,5.00,0.00,28.2,27.6,00.0,37.0,30.0,05.9,0001.9,0039.02,0013.69,0006.76
2022-04-26 21:14:00,,0824.4,5.00,0.00,28.2,27.6,00.0,37.0,30.1,06.2,0002.0,0038.08,0013.65,0006.73
2022-04-26 21:15:00,,0824.4,5.00,0.00,28.2,27.6,00.0,37.0,30.1,06.0,0001.8,0037.75,0013.63,0006.72
2022-04-26 21:16:00,,0824.3,5.00,0.00,28.2,27.6,00.0,37.0,30.1,05.9,0003.5,0037.72,0013.61,0006.70
2022-04-26 21:17:00,,0824.3,5.01,0.00,28.3,27.6,00.0,37.0,30.1,05.9,0004.4,0037.22,0013.52,0006.66
2022-04-26 21:18:00,,0824.3,4.99,0.00,28.3,27.6,00.0,37.0,30.1,06.0,0005.5,0037.21,0013.66,0006.64
2022-04-26 21:19:00,,0824.3,4.99,0.00,28.3,27.6,00.0,37.0,30.1,05.9,0003.0,0037.11,0013.65,0006.63
2022-04-26 21:20:00,,0824.3,5.00,0.00,28.3,27.7,00.0,37.1,30.1,05.7,0003.5,0037.55,0013.59,0006.59
2022-04-26 21:21:00,,0824.3,5.01,0.00,28.3,27.7,00.0,37.1,30.2,05.6,0002.8,0036.80,0013.37,0006.54
2022-04-26 21:22:00,,0824.3,5.01,0.00,28.4,27.7,00.0,37.1,30.2,05.9,0001.7,0035.02,0013.27,0006.51
2022-04-26 21:23:00,,0824.3,4.99,0.00,28.4,27.7,00.0,37.1,30.2,06.2,0000.9,0034.44,0013.23,0006.50
2022-04-26 21:24:00,,0824.3,5.00,0.00,28.4,27.7,00.0,37.1,30.2,06.3,-000.8,0033.98,0013.18,0006.48
2022-04-26 21:25:00,,0824.3,5.00,0.00,28.4,27.7,00.0,37.1,30.2,06.2,-000.4,0034.28,0013.31,0006.50
2022-04-26 21:26:00,,0824.3,5.00,0.00,28.4,27.7,00.0,37.2,30.2,06.0,-000.1,0034.43,0013.38,0006.51
2022-04-26 21:27:00,,0824.3,5.01,0.00,28.4,27.7,00.0,37.2,30.2,05.9,0000.1,0034.88,0013.45,0006.53
2022-04-26 21:28:00,,0824.3,4.99,0.00,28.4,27.7,00.0,37.2,30.2,06.0,0000.6,0035.45,0013.53,0006.55
2022-04-26 21:29:00,,0824.3,4.99,0.00,28.4,27.8,00.0,37.2,30.2,06.2,0001.0,0036.26,0013.53,0006.56
2022-04-26 21:30:00,,0824.3,5.01,0.00,28.4,27.8,00.0,37.2,30.2,06.2,0001.7,0035.54,0013.42,0006.57
2022-04-26 21:31:00,,0824.3,5.00,0.00,28.4,27.8,00.0,37.2,30.3,06.2,0002.0,0034.46,0013.36,0006.55
2022-04-26 21:32:00,,0824.3,5.00,0.00,28.5,27.8,00.0,37.2,30.3,06.3,0002.2,0034.77,0013.44,0006.55
2022-04-26 21:33:00,,0824.2,5.00,0.00,28.5,27.9,00.0,37.2,30.3,06.5,0002.3,0034.84,0013.48,0006.55
2022-04-26 21:34:00,,0824.2,5.01,0.00,28.5,27.9,00.0,37.3,30.4,06.7,0002.3,0034.66,0013.46,0006.54
2022-04-26 21:35:00,,0824.2,5.00,0.00,28.5,27.9,00.0,37.3,30.4,06.3,0002.5,0035.02,0013.47,0006.52
2022-04-26 21:36:00,,0824.2,4.99,0.00,28.5,27.9,00.0,37.3,30.4,06.4,0002.3,0035.77,0013.34,0006.50
2022-04-26 21:37:00,,0824.2,4.99,0.00,28.5,27.9,00.0,37.3,30.4,06.2,0002.6,0036.53,0013.40,0006.48
2022-04-26 21:38:00,,0824.3,5.00,0.00,28.5,27.9,00.0,37.3,30.4,06.0,0001.9,0036.52,0013.53,0006.48
2022-04-26 21:39:00,,0824.3,5.00,0.00,28.6,27.9,00.0,37.3,30.4,06.0,0001.4,0036.11,0013.53,0006.47
2022-04-26 21:40:00,,0824.3,5.01,0.00,28.6,27.9,00.0,37.3,30.4,06.2,0002.7,0035.37,0013.54,0006.47
2022-04-26 21:41:00,,0824.2,5.00,0.00,28.6,28.0,00.0,37.4,30.4,06.2,0002.7,0035.69,0013.73,0006.46
2022-04-26 21:42:00,,0824.3,5.00,0.00,28.6,28.0,00.0,37.4,30.5,06.2,0003.1,0037.00,0013.89,0006.48
2022-04-26 21:43:00,,0824.2,5.00,0.00,28.6,28.0,00.0,37.4,30.5,06.3,0003.0,0038.23,0013.91,0006.50
2022-04-26 21:44:00,,0824.2,5.00,0.00,28.6,28.0,00.0,37.4,30.5,06.3,0003.1,0038.55,0014.01,0006.51
2022-04-26 21:45:00,,0824.2,5.01,0.00,28.7,28.0,00.0,37.4,30.5,06.6,0003.1,0038.74,0014.02,0006.52
2022-04-26 21:46:00,,0824.2,5.00,0.00,28.7,28.1,00.0,37.4,30.5,06.7,0002.2,0038.32,0014.09,0006.54
2022-04-26 21:47:00,,0824.1,4.99,0.00,28.7,28.1,00.0,37.4,30.5,06.7,0002.2,0038.59,0014.13,0006.53
2022-04-26 21:48:00,,0824.1,4.99,0.00,28.7,28.1,00.0,37.5,30.5,06.0,0001.9,0038.15,0013.88,0006.48
2022-04-26 21:49:00,,0824.1,5.00,0.00,28.7,28.1,00.0,37.5,30.5,06.2,0002.8,0037.55,0013.55,0006.40
2022-04-26 21:50:00,,0824.0,5.01,0.00,28.7,28.1,00.0,37.5,30.5,06.3,0003.5,0038.32,0013.45,0006.37
2022-04-26 21:51:00,,0824.1,5.00,0.00,28.7,28.1,00.0,37.5,30.5,06.1,0003.1,0039.12,0013.37,0006.36
2022-04-26 21:52:00,,0824.1,4.99,0.00,28.7,28.1,00.0,37.5,30.6,06.0,0003.6,0038.20,0013.19,0006.34
2022-04-26 21:53:00,,0824.1,5.01,0.00,28.8,28.1,00.0,37.6,30.6,05.9,0003.6,0037.60,0012.96,0006.31
2022-04-26 21:54:00,,0824.1,4.99,0.00,28.8,28.2,00.0,37.6,30.6,06.0,0003.4,0035.72,0012.89,0006.28
2022-04-26 21:55:00,,0824.1,5.00,0.00,28.8,28.2,00.0,37.6,30.7,05.5,0003.3,0034.83,0012.59,0006.19
2022-04-26 21:56:00,,0824.1,5.01,0.00,28.9,28.2,00.0,37.6,30.7,05.2,0003.0,0035.34,0012.26,0006.09
2022-04-26 21:57:00,,0824.1,4.99,0.00,28.9,28.3,00.0,37.6,30.7,05.3,0003.6,0034.98,0011.89,0006.00
2022-04-26 21:58:00,,0824.0,5.00,0.00,28.9,28.3,00.0,37.6,30.7,05.1,0003.8,0034.95,0011.63,0005.91
2022-04-26 21:59:00,,0824.1,4.99,0.00,28.9,28.3,00.0,37.7,30.8,05.1,0003.7,0033.57,0011.42,0005.85
